[[{"header":{"parameterUnit":"m.s-1","parameterCategory":1,"la1":30.2991,"la2":30.254,"lo1":-89.0895,"lo2":-89.0444,"dy":0.0017,"dx":0.0017,"nx":28,"ny":28,"refTime":"2024-08-06T03:00:00:Z","depth":0,"parameterNumber":2,"parameterNumberName":"U-component_of_WINDS"},"data":[0,0,0,0,0,0,0,0,0,0,0,0,0,0,0,0,0,0,0,0,0,0,0,0,0,0,0,0,0,0,0,0,0,0,0,0,0,0,0,0,0,0,0,0,0,0,0,0,0,0,0,0,0,0,0,0,0,0,2.521,2.5211,0,2.5277,2.5278,2.5279,2.5254,2.5252,2.5251,2.5249,2.5319,2.5322,2.5326,0,0,0,0,0,0,0,0,0,0,0,0,0,2.5061,2.5064,2.521,2.5211,2.5212,2.5277,2.5278,2.5279,2.5254,2.5252,2.525,2.5248,2.5318,2.5322,2.5326,0,0,0,0,0,0,0,0,0,0,0,0,0,2.5127,2.5065,2.521,2.5207,2.5207,2.5277,2.5278,2.5279,2.5254,2.5252,2.525,2.5247,2.5317,2.5322,2.5326,2.5403,0,0,2.5342,2.5344,0,0,0,0,0,0,0,0,2.5123,2.5133,2.5206,2.5207,2.5208,2.5255,2.5252,2.5321,2.5255,2.5236,2.5249,2.5246,2.53,2.5306,2.5324,2.5407,2.541,2.5342,2.5345,2.5347,2.5349,0,0,0,0,0,0,0,2.5119,2.513,2.5237,2.5207,2.5208,2.5203,2.521,2.5265,2.528,2.5238,2.5236,2.5245,2.53,2.5319,2.5325,2.5411,2.5342,2.5346,2.5349,2.5351,2.5564,2.5567,0,0,0,0,0,0,2.5114,2.5126,2.5234,2.5239,2.5159,2.5208,2.5215,2.5242,2.528,2.5283,2.5246,2.5243,2.5312,2.5319,2.5327,2.5422,2.5347,2.5352,2.5355,2.5561,2.5565,2.5567,0,0,0,0,0,0,2.5111,2.5124,2.5232,2.5182,2.5195,2.5213,2.5243,2.5245,2.5264,2.5286,2.5289,2.5263,2.531,2.532,2.5385,2.5424,2.5354,2.5358,2.5558,2.5562,2.5566,2.5612,0,0,0,0,0,0,2.5107,2.5123,2.5151,2.5183,2.5198,2.5288,2.5245,2.5248,2.5272,2.5269,2.5303,2.5306,2.5309,2.5378,2.539,2.543,2.5362,2.5555,2.556,2.5565,2.5607,2.5617,2.5625,0,0,0,0,0,2.5101,2.5161,2.5153,2.5166,2.5234,2.529,2.5299,2.5301,2.5276,2.5305,2.532,2.5305,2.5418,2.5385,2.5399,2.544,2.5552,2.5559,2.5564,2.5603,2.5615,2.5625,0,0,0,0,0,0,2.5133,2.5165,2.5156,2.5228,2.5257,2.5286,2.5323,2.5313,2.535,2.5345,2.5346,2.5354,2.5422,2.5437,2.54,2.5519,2.5482,2.5491,2.5506,2.5518,2.5527,2.5522,2.5366,0,0,0,0,0,2.5149,2.5191,2.5216,2.5277,2.5292,2.5305,2.533,2.5329,2.5359,2.5371,2.539,2.542,2.5463,2.5491,2.5531,2.5609,2.5617,2.5644,2.5654,2.5661,2.5669,2.5714,2.5727,2.5587,2.5587,2.5587,0,0,2.5181,2.5203,2.523,2.5284,2.5306,2.5352,2.5316,2.5364,2.5398,2.5378,2.5442,2.5457,2.5491,2.5563,2.5596,2.5578,2.571,2.5669,2.5674,2.5679,2.5722,2.5735,2.5747,2.5591,2.5591,2.559,0,0,2.5263,2.5283,2.5337,2.5361,2.5395,2.5404,2.5417,2.5449,2.5458,2.5522,2.5509,2.555,2.5622,2.5648,2.567,2.5765,2.5754,2.5778,2.5827,2.5871,2.5882,2.5892,2.5928,2.5941,2.5786,2.5786,2.5786,0,2.5298,2.5365,2.5366,2.5417,2.5442,2.5427,2.5483,2.5506,2.5552,2.557,2.555,2.5643,2.5664,2.5744,2.5767,2.5785,2.5802,2.5775,2.588,2.589,2.5899,2.5934,2.5947,2.5789,2.5789,2.5788,2.5788,0,2.5409,2.5455,2.5495,2.5541,2.5571,2.5623,2.5634,2.5664,2.5662,2.5673,2.5739,2.5765,2.5812,2.583,2.5827,2.5911,2.5899,2.5879,2.5842,2.5916,2.5948,2.5961,2.5793,2.5792,2.5791,2.5791,0,0,2.5512,2.5559,2.5574,2.5596,2.5634,2.567,2.5724,2.5769,2.5796,2.5829,2.5875,2.5938,2.5921,2.5947,2.5948,2.5986,2.6063,2.5962,2.5963,2.5982,2.6159,2.6174,2.6189,2.6055,2.6058,2.6059,2.6157,0,2.5598,2.5691,2.5695,2.5781,2.5826,2.5813,2.586,2.5889,2.5902,2.5943,2.5957,2.6003,2.5975,2.5991,2.6029,2.6045,2.6099,2.6038,2.61,2.6102,2.6093,2.6206,2.6222,2.6312,2.6169,2.6171,2.6173,0,2.5711,2.5749,2.5839,2.5874,2.5892,2.5934,2.5978,2.6017,2.6051,2.6057,2.6087,2.6083,2.614,2.61,2.6179,2.6138,2.6164,2.6176,2.618,2.6187,2.6142,2.6218,2.6341,2.6355,2.6192,2.6191,2.6189,0,2.578,2.5853,2.5917,2.5936,2.5977,2.6008,2.6026,2.6058,2.6086,2.6125,2.6143,2.6188,2.6213,2.6248,2.6256,2.6227,2.6336,2.6297,2.6345,2.6345,2.6369,2.6368,2.65,2.6383,2.6383,2.6383,2.6382,0,2.5877,2.5934,2.5949,2.5989,2.6052,2.6057,2.612,2.6137,2.6165,2.6209,2.6201,2.6242,2.625,2.6294,2.6301,2.6367,2.6378,2.6386,2.6388,2.6388,2.6387,2.6405,2.64,2.6386,2.6386,2.6385,2.6384,0,2.5965,2.5977,2.6047,2.6081,2.6091,2.6137,2.6166,2.6205,2.6218,2.6274,2.6287,2.6307,2.6358,2.637,2.6431,2.6436,2.6514,2.6509,2.6503,2.6503,2.6551,2.6548,2.6701,2.6723,2.659,2.6591,2.6592,0,2.6027,2.607,2.6109,2.6138,2.6159,2.6205,2.6234,2.6241,2.6272,2.6316,2.635,2.6401,2.6441,2.6524,2.6545,2.6592,2.6589,2.6639,2.6596,2.6596,2.6592,2.659,2.6596,2.6648,2.6649,2.6651,2.6652,0,2.6136,2.6141,2.6183,2.6229,2.6265,2.6301,2.6335,2.6359,2.6371,2.6407,2.646,2.6491,2.6555,2.6606,2.6654,2.6674,2.6666,2.6665,2.6679,2.6681,2.6676,2.6682,2.6528,2.6662,2.6661,2.666,2.6659,2.6659,2.6214,2.6253,2.6288,2.6336,2.6363,2.6396,2.6436,2.6454,2.6498,2.655,2.6551,2.6609,2.6645,2.6708,2.6732,2.6778,2.6763,2.6782,2.6788,2.6793,2.6798,2.6668,2.6787,2.6786,2.6786,2.6786,2.6786,0,2.6325,2.6347,2.6392,2.6441,2.648,2.6469,2.6507,2.654,2.6592,2.6625,2.6666,2.6728,2.6778,2.6804,2.6854,2.6886,2.6884,2.6899,2.6898,2.6903,2.6808,2.6792,2.6901,2.6901,2.6901,2.6901,2.6901,2.6901,2.6387,2.6454,2.6463,2.6544,2.6565,2.6622,2.6646,2.6677,2.6704,2.6774,2.6816,2.6832,2.6863,2.6916,2.6962,2.6968,2.6988,2.7006,2.701,2.6921,2.691,2.6898,2.6883,2.701,2.701,2.7102,2.7103,2.7103]},{"header":{"parameterUnit":"m.s-1","parameterCategory":1,"la1":30.2991,"la2":30.254,"lo1":-89.0895,"lo2":-89.0444,"dy":0.0017,"dx":0.0017,"nx":28,"ny":28,"refTime":"2024-08-06T03:00:00:Z","depth":0,"parameterNumber":3,"parameterNumberName":"V-component_of_WINDS"},"data":[0,0,0,0,0,0,0,0,0,0,0,0,0,0,0,0,0,0,0,0,0,0,0,0,0,0,0,0,0,0,0,0,0,0,0,0,0,0,0,0,0,0,0,0,0,0,0,0,0,0,0,0,0,0,0,0,0,0,-2.7395,-2.7396,0,-2.7427,-2.7427,-2.7427,-2.7453,-2.7454,-2.7454,-2.7454,-2.7484,-2.7485,-2.7485,0,0,0,0,0,0,0,0,0,0,0,0,0,-2.7359,-2.7359,-2.7395,-2.7396,-2.7396,-2.7426,-2.7427,-2.7427,-2.7453,-2.7454,-2.7454,-2.7454,-2.7484,-2.7485,-2.7485,0,0,0,0,0,0,0,0,0,0,0,0,0,-2.7381,-2.736,-2.7395,-2.7413,-2.7415,-2.7426,-2.7427,-2.7427,-2.7453,-2.7454,-2.7454,-2.7455,-2.7484,-2.7485,-2.7485,-2.7482,0,0,-2.7488,-2.7488,0,0,0,0,0,0,0,0,-2.7379,-2.7382,-2.741,-2.7412,-2.7414,-2.7437,-2.7425,-2.7445,-2.7453,-2.7439,-2.7454,-2.7455,-2.7468,-2.747,-2.7475,-2.7483,-2.7484,-2.7488,-2.7488,-2.7489,-2.7489,0,0,0,0,0,0,0,-2.7378,-2.7381,-2.7408,-2.741,-2.7413,-2.7419,-2.7423,-2.7429,-2.745,-2.744,-2.7442,-2.7445,-2.7469,-2.7474,-2.7476,-2.7485,-2.7488,-2.7489,-2.7489,-2.7489,-2.7495,-2.7494,0,0,0,0,0,0,-2.7374,-2.7379,-2.7407,-2.7409,-2.7397,-2.742,-2.7424,-2.7429,-2.745,-2.7454,-2.7445,-2.7446,-2.7472,-2.7475,-2.7477,-2.7476,-2.7489,-2.7489,-2.749,-2.7495,-2.7495,-2.7494,0,0,0,0,0,0,-2.7373,-2.7376,-2.7405,-2.7395,-2.7399,-2.742,-2.7425,-2.7429,-2.7434,-2.7454,-2.7458,-2.7446,-2.7473,-2.7476,-2.7481,-2.7477,-2.749,-2.749,-2.7495,-2.7495,-2.7494,-2.7472,0,0,0,0,0,0,-2.7372,-2.7375,-2.7374,-2.7394,-2.7399,-2.7409,-2.7425,-2.7429,-2.7436,-2.7438,-2.7456,-2.746,-2.7473,-2.748,-2.7482,-2.7478,-2.7491,-2.7496,-2.7495,-2.7495,-2.7473,-2.7471,-2.7469,0,0,0,0,0,-2.737,-2.7365,-2.7373,-2.7377,-2.7398,-2.7408,-2.7411,-2.7428,-2.7435,-2.7434,-2.7448,-2.7459,-2.7477,-2.748,-2.7483,-2.7479,-2.7496,-2.7495,-2.7495,-2.7474,-2.7471,-2.7469,0,0,0,0,0,0,-2.7342,-2.7368,-2.7378,-2.7379,-2.7391,-2.7413,-2.7411,-2.7424,-2.7433,-2.7435,-2.7455,-2.7459,-2.7462,-2.7471,-2.7474,-2.7479,-2.7488,-2.7488,-2.7472,-2.747,-2.7467,-2.7465,-2.7492,0,0,0,0,0,-2.7336,-2.7343,-2.7365,-2.7364,-2.737,-2.739,-2.7395,-2.7407,-2.742,-2.7425,-2.7439,-2.7451,-2.7461,-2.7466,-2.7475,-2.7475,-2.7481,-2.7475,-2.7472,-2.7471,-2.747,-2.7474,-2.7472,-2.7492,-2.7492,-2.7492,0,0,-2.7323,-2.7338,-2.7341,-2.7359,-2.737,-2.7377,-2.7394,-2.74,-2.7405,-2.7426,-2.7433,-2.7443,-2.7459,-2.7462,-2.7465,-2.747,-2.7466,-2.747,-2.7468,-2.7468,-2.7473,-2.7471,-2.7469,-2.7491,-2.7491,-2.7491,0,0,-2.7304,-2.7316,-2.7317,-2.7329,-2.7346,-2.736,-2.7361,-2.7381,-2.739,-2.7397,-2.7414,-2.7421,-2.7435,-2.7446,-2.7453,-2.7442,-2.7454,-2.7445,-2.7433,-2.7436,-2.7435,-2.7433,-2.7431,-2.743,-2.7444,-2.7444,-2.7444,0,-2.7286,-2.7297,-2.7316,-2.7323,-2.7331,-2.7352,-2.7355,-2.7365,-2.7383,-2.7389,-2.7395,-2.7416,-2.7427,-2.7435,-2.7433,-2.7438,-2.744,-2.7442,-2.7433,-2.7432,-2.7431,-2.7429,-2.7428,-2.7443,-2.7443,-2.7443,-2.7443,0,-2.7275,-2.7283,-2.7282,-2.7302,-2.731,-2.7314,-2.7335,-2.7341,-2.7353,-2.7367,-2.7375,-2.739,-2.7404,-2.7407,-2.7418,-2.7417,-2.742,-2.743,-2.744,-2.7428,-2.7426,-2.7426,-2.7441,-2.7442,-2.7442,-2.7442,0,0,-2.7236,-2.7269,-2.7269,-2.7279,-2.7302,-2.7308,-2.7314,-2.7329,-2.7335,-2.7348,-2.7354,-2.7368,-2.7378,-2.7386,-2.7399,-2.7402,-2.7395,-2.7411,-2.7412,-2.7409,-2.7397,-2.739,-2.7389,-2.7403,-2.7403,-2.7403,-2.7396,0,-2.7221,-2.7233,-2.7253,-2.7259,-2.7268,-2.729,-2.7296,-2.731,-2.7324,-2.7333,-2.7348,-2.7358,-2.737,-2.7375,-2.7379,-2.7395,-2.7393,-2.7395,-2.741,-2.741,-2.7405,-2.7388,-2.7379,-2.7372,-2.7395,-2.7395,-2.7395,0,-2.7204,-2.7219,-2.7226,-2.7251,-2.7255,-2.726,-2.7277,-2.7285,-2.7303,-2.7313,-2.7325,-2.734,-2.7348,-2.7358,-2.7372,-2.7373,-2.738,-2.7389,-2.739,-2.7391,-2.7402,-2.7389,-2.737,-2.7369,-2.7394,-2.7394,-2.7394,0,-2.7177,-2.7198,-2.7206,-2.7214,-2.7242,-2.7246,-2.7258,-2.7276,-2.7285,-2.73,-2.7306,-2.7321,-2.7329,-2.7341,-2.7361,-2.7366,-2.7372,-2.7383,-2.7381,-2.7381,-2.7381,-2.7381,-2.7363,-2.7385,-2.7385,-2.7385,-2.7385,0,-2.7158,-2.7162,-2.7194,-2.7199,-2.7205,-2.7228,-2.7234,-2.7248,-2.7265,-2.7273,-2.7293,-2.7301,-2.7326,-2.7337,-2.7352,-2.7362,-2.7365,-2.7374,-2.7378,-2.7372,-2.7371,-2.7377,-2.7378,-2.7385,-2.7385,-2.7385,-2.7385,0,-2.7128,-2.715,-2.716,-2.7187,-2.7195,-2.7198,-2.7221,-2.7228,-2.7244,-2.7255,-2.7258,-2.7283,-2.7298,-2.7318,-2.7338,-2.7349,-2.7357,-2.7363,-2.7351,-2.7353,-2.735,-2.7351,-2.7336,-2.7336,-2.7357,-2.7357,-2.7357,0,-2.7115,-2.7119,-2.7147,-2.7155,-2.7167,-2.7179,-2.7189,-2.7212,-2.7222,-2.7245,-2.7249,-2.7265,-2.7279,-2.7301,-2.7321,-2.7337,-2.7344,-2.7338,-2.7346,-2.7342,-2.7345,-2.7345,-2.7346,-2.7336,-2.7335,-2.7335,-2.7335,0,-2.7089,-2.7101,-2.7114,-2.7132,-2.7144,-2.7159,-2.7175,-2.718,-2.7208,-2.7218,-2.7233,-2.7244,-2.7267,-2.7283,-2.7302,-2.7315,-2.733,-2.7332,-2.7333,-2.7327,-2.732,-2.7325,-2.7345,-2.7332,-2.7332,-2.7333,-2.7333,-2.7333,-2.7068,-2.7073,-2.7095,-2.7111,-2.7126,-2.7141,-2.7149,-2.7167,-2.7181,-2.7201,-2.7215,-2.723,-2.7251,-2.7279,-2.7292,-2.7305,-2.731,-2.7311,-2.7311,-2.7311,-2.731,-2.7319,-2.7308,-2.7308,-2.7308,-2.7308,-2.7309,0,-2.7044,-2.706,-2.7074,-2.7097,-2.711,-2.7124,-2.7144,-2.7153,-2.7167,-2.7185,-2.72,-2.7219,-2.7236,-2.7258,-2.7277,-2.7283,-2.7291,-2.7287,-2.7287,-2.729,-2.7303,-2.7301,-2.7281,-2.7281,-2.7281,-2.7281,-2.7281,-2.7281,-2.7033,-2.7045,-2.7059,-2.7079,-2.7095,-2.7111,-2.7121,-2.7136,-2.7151,-2.7172,-2.7187,-2.7202,-2.7223,-2.7244,-2.726,-2.7266,-2.7273,-2.7267,-2.7276,-2.7287,-2.7289,-2.7291,-2.729,-2.7269,-2.7268,-2.7263,-2.7263,-2.7263]}]]